LOCATION_NAME,SAMPLE COLLECTION TIME,DOSE EQUIVALENT RATE (nSv/h),GAMMA COUNT RATE R02 (CPM),GAMMA COUNT RATE R03 (CPM),GAMMA COUNT RATE R04 (CPM),GAMMA COUNT RATE R05 (CPM),GAMMA COUNT RATE R06 (CPM),GAMMA COUNT RATE R07 (CPM),GAMMA COUNT RATE R08 (CPM),GAMMA COUNT RATE R09 (CPM),STATUS
KS: KANSAS CITY,01/01/2019 00:08:00,,2430.00,1568.00,457.00,284.00,154.00,185.00,112.00,40.00,APPROVED
KS: KANSAS CITY,01/01/2019 01:09:00,,2622.00,1741.00,503.00,325.00,167.00,209.00,123.00,47.00,APPROVED
KS: KANSAS CITY,01/01/2019 02:09:00,,2673.00,1791.00,531.00,338.00,175.00,217.00,125.00,47.00,APPROVED
KS: KANSAS CITY,01/01/2019 03:09:00,,2572.00,1662.00,492.00,305.00,163.00,202.00,116.00,43.00,APPROVED
KS: KANSAS CITY,01/01/2019 04:09:00,,2503.00,1596.00,476.00,281.00,154.00,189.00,108.00,40.00,APPROVED
KS: KANSAS CITY,01/01/2019 05:09:00,,2479.00,1561.00,456.00,270.00,152.00,186.00,107.00,39.00,APPROVED
KS: KANSAS CITY,01/01/2019 06:10:00,,2499.00,1561.00,459.00,261.00,149.00,182.00,102.00,39.00,APPROVED
KS: KANSAS CITY,01/01/2019 07:10:00,,2468.00,1533.00,460.00,260.00,149.00,180.00,100.00,37.00,APPROVED
KS: KANSAS CITY,01/01/2019 08:10:00,,2489.00,1534.00,459.00,257.00,145.00,178.00,100.00,39.00,APPROVED
KS: KANSAS CITY,01/01/2019 09:10:00,,2468.00,1510.00,451.00,247.00,141.00,181.00,97.00,36.00,APPROVED
KS: KANSAS CITY,01/01/2019 10:10:00,,2447.00,1486.00,442.00,244.00,140.00,173.00,93.00,37.00,APPROVED
KS: KANSAS CITY,01/01/2019 11:11:00,,2442.00,1487.00,442.00,241.00,139.00,168.00,96.00,37.00,APPROVED
KS: KANSAS CITY,01/01/2019 12:11:00,,2446.00,1464.00,437.00,241.00,140.00,170.00,96.00,37.00,APPROVED
KS: KANSAS CITY,01/01/2019 13:11:00,,2440.00,1470.00,439.00,236.00,140.00,172.00,94.00,36.00,APPROVED
KS: KANSAS CITY,01/01/2019 14:11:00,,2423.00,1438.00,432.00,234.00,136.00,167.00,93.00,36.00,APPROVED
KS: KANSAS CITY,01/01/2019 15:11:00,,2413.00,1432.00,423.00,232.00,136.00,163.00,91.00,35.00,APPROVED
KS: KANSAS CITY,01/01/2019 16:12:00,,2407.00,1415.00,423.00,226.00,138.00,163.00,91.00,34.00,APPROVED
KS: KANSAS CITY,01/01/2019 17:12:00,,2385.00,1413.00,419.00,221.00,133.00,160.00,93.00,34.00,APPROVED
KS: KANSAS CITY,01/01/2019 18:12:00,,2377.00,1409.00,424.00,222.00,132.00,158.00,90.00,34.00,APPROVED
KS: KANSAS CITY,01/01/2019 19:12:00,,2371.00,1390.00,417.00,220.00,133.00,157.00,86.00,33.00,APPROVED
KS: KANSAS CITY,01/01/2019 20:12:00,,2372.00,1394.00,413.00,222.00,131.00,156.00,88.00,36.00,APPROVED
KS: KANSAS CITY,01/01/2019 21:13:00,,2384.00,1385.00,412.00,216.00,129.00,157.00,88.00,34.00,APPROVED
KS: KANSAS CITY,01/01/2019 22:13:00,,2374.00,1376.00,410.00,218.00,134.00,158.00,87.00,32.00,APPROVED
KS: KANSAS CITY,01/01/2019 23:13:00,,2363.00,1372.00,417.00,218.00,133.00,157.00,86.00,33.00,APPROVED
KS: KANSAS CITY,01/02/2019 00:13:00,,2368.00,1378.00,415.00,220.00,131.00,159.00,87.00,35.00,APPROVED
KS: KANSAS CITY,01/02/2019 01:14:00,,2373.00,1382.00,412.00,219.00,135.00,158.00,89.00,33.00,APPROVED
KS: KANSAS CITY,01/02/2019 02:14:00,,2380.00,1382.00,416.00,217.00,132.00,157.00,87.00,35.00,APPROVED
KS: KANSAS CITY,01/02/2019 03:14:00,,2373.00,1379.00,420.00,219.00,133.00,159.00,90.00,32.00,APPROVED
KS: KANSAS CITY,01/02/2019 04:14:00,,2379.00,1378.00,409.00,219.00,131.00,157.00,87.00,34.00,APPROVED
KS: KANSAS CITY,01/02/2019 05:14:00,,2372.00,1382.00,411.00,225.00,135.00,157.00,89.00,34.00,APPROVED
KS: KANSAS CITY,01/02/2019 06:15:00,,2393.00,1400.00,419.00,222.00,132.00,161.00,92.00,35.00,APPROVED
KS: KANSAS CITY,01/02/2019 07:15:00,,2417.00,1424.00,422.00,227.00,133.00,161.00,90.00,35.00,APPROVED
KS: KANSAS CITY,01/02/2019 08:15:00,,2440.00,1457.00,436.00,231.00,136.00,167.00,94.00,37.00,APPROVED
KS: KANSAS CITY,01/02/2019 09:15:00,,2463.00,1471.00,442.00,236.00,138.00,167.00,95.00,36.00,APPROVED
KS: KANSAS CITY,01/02/2019 10:15:00,,2461.00,1484.00,444.00,242.00,141.00,173.00,97.00,35.00,APPROVED
KS: KANSAS CITY,01/02/2019 11:15:00,,2445.00,1460.00,438.00,239.00,138.00,167.00,97.00,34.00,APPROVED
KS: KANSAS CITY,01/02/2019 12:16:00,,2423.00,1435.00,431.00,229.00,136.00,165.00,92.00,35.00,APPROVED
KS: KANSAS CITY,01/02/2019 13:16:00,,2400.00,1424.00,426.00,230.00,132.00,163.00,92.00,35.00,APPROVED
KS: KANSAS CITY,01/02/2019 14:16:00,,2397.00,1416.00,420.00,227.00,135.00,162.00,92.00,34.00,APPROVED
KS: KANSAS CITY,01/02/2019 15:16:00,,2398.00,1420.00,422.00,232.00,135.00,164.00,94.00,35.00,APPROVED
KS: KANSAS CITY,01/02/2019 16:16:00,,2373.00,1401.00,419.00,227.00,133.00,162.00,93.00,33.00,APPROVED
KS: KANSAS CITY,01/02/2019 17:17:00,,2362.00,1402.00,419.00,230.00,132.00,157.00,93.00,35.00,APPROVED
KS: KANSAS CITY,01/02/2019 18:17:00,,2346.00,1395.00,419.00,229.00,134.00,160.00,93.00,35.00,APPROVED
KS: KANSAS CITY,01/02/2019 19:17:00,,2315.00,1398.00,412.00,229.00,137.00,161.00,97.00,37.00,APPROVED
KS: KANSAS CITY,01/02/2019 20:17:00,,2316.00,1378.00,415.00,227.00,136.00,155.00,93.00,38.00,APPROVED
KS: KANSAS CITY,01/02/2019 21:17:00,,2298.00,1377.00,410.00,228.00,134.00,156.00,94.00,36.00,APPROVED
KS: KANSAS CITY,01/02/2019 22:18:00,,2299.00,1379.00,412.00,226.00,133.00,157.00,96.00,34.00,APPROVED
KS: KANSAS CITY,01/02/2019 23:18:00,,2321.00,1378.00,409.00,227.00,133.00,153.00,93.00,38.00,APPROVED
KS: KANSAS CITY,01/03/2019 00:18:00,,2339.00,1375.00,416.00,222.00,136.00,154.00,93.00,34.00,APPROVED
KS: KANSAS CITY,01/03/2019 01:18:00,,2326.00,1383.00,410.00,224.00,136.00,156.00,93.00,36.00,APPROVED
KS: KANSAS CITY,01/03/2019 02:18:00,,2353.00,1380.00,420.00,221.00,131.00,159.00,95.00,34.00,APPROVED
KS: KANSAS CITY,01/03/2019 03:19:00,,2362.00,1383.00,419.00,224.00,133.00,157.00,92.00,34.00,APPROVED
KS: KANSAS CITY,01/03/2019 04:19:00,,2375.00,1396.00,413.00,226.00,135.00,156.00,93.00,35.00,APPROVED
KS: KANSAS CITY,01/03/2019 05:19:00,,2388.00,1406.00,417.00,230.00,135.00,159.00,94.00,35.00,APPROVED
KS: KANSAS CITY,01/03/2019 06:19:00,,2393.00,1419.00,421.00,230.00,136.00,159.00,96.00,34.00,APPROVED
KS: KANSAS CITY,01/03/2019 07:19:00,,2411.00,1420.00,425.00,231.00,136.00,163.00,93.00,34.00,APPROVED
KS: KANSAS CITY,01/03/2019 08:20:00,,2420.00,1447.00,432.00,233.00,138.00,164.00,96.00,35.00,APPROVED
KS: KANSAS CITY,01/03/2019 09:20:00,,2425.00,1441.00,431.00,237.00,139.00,166.00,94.00,37.00,APPROVED
KS: KANSAS CITY,01/03/2019 10:20:00,,2440.00,1453.00,433.00,238.00,137.00,166.00,97.00,37.00,APPROVED
KS: KANSAS CITY,01/03/2019 11:20:00,,2453.00,1465.00,435.00,235.00,139.00,168.00,95.00,37.00,APPROVED
KS: KANSAS CITY,01/03/2019 12:21:00,,2438.00,1449.00,433.00,238.00,138.00,166.00,96.00,36.00,APPROVED
KS: KANSAS CITY,01/03/2019 13:21:00,,2447.00,1448.00,428.00,235.00,136.00,165.00,94.00,35.00,APPROVED
KS: KANSAS CITY,01/03/2019 14:21:00,,2462.00,1457.00,433.00,236.00,139.00,164.00,93.00,36.00,APPROVED
KS: KANSAS CITY,01/03/2019 16:21:00,,2449.00,1504.00,447.00,256.00,145.00,175.00,103.00,39.00,APPROVED
KS: KANSAS CITY,01/03/2019 22:23:00,,2152.00,1369.00,424.00,247.00,139.00,168.00,103.00,38.00,APPROVED
KS: KANSAS CITY,01/03/2019 23:23:00,,2243.00,1395.00,421.00,253.00,140.00,166.00,104.00,39.00,APPROVED
KS: KANSAS CITY,01/04/2019 00:23:00,,2315.00,1428.00,424.00,246.00,143.00,168.00,102.00,38.00,APPROVED
KS: KANSAS CITY,01/28/2019 16:22:00,,2360.00,1369.00,399.00,210.00,128.00,148.00,90.00,33.00,APPROVED
KS: KANSAS CITY,01/28/2019 17:22:00,,2408.00,1439.00,419.00,231.00,134.00,163.00,94.00,35.00,APPROVED
KS: KANSAS CITY,01/28/2019 18:23:00,,2416.00,1441.00,426.00,237.00,136.00,166.00,94.00,35.00,APPROVED
KS: KANSAS CITY,01/28/2019 19:23:00,,2412.00,1439.00,423.00,233.00,138.00,164.00,94.00,34.00,APPROVED
KS: KANSAS CITY,01/28/2019 20:23:00,,2401.00,1432.00,419.00,233.00,135.00,164.00,97.00,35.00,APPROVED
KS: KANSAS CITY,01/28/2019 21:23:00,,2399.00,1417.00,421.00,235.00,138.00,161.00,90.00,34.00,APPROVED
KS: KANSAS CITY,01/28/2019 22:23:00,,2384.00,1406.00,416.00,227.00,135.00,160.00,94.00,36.00,APPROVED
KS: KANSAS CITY,01/28/2019 23:24:00,,2394.00,1405.00,415.00,225.00,137.00,160.00,91.00,35.00,APPROVED
KS: KANSAS CITY,01/29/2019 00:24:00,,2373.00,1393.00,420.00,226.00,132.00,159.00,93.00,33.00,APPROVED
KS: KANSAS CITY,01/29/2019 01:24:00,,2366.00,1379.00,415.00,217.00,134.00,155.00,89.00,34.00,APPROVED
KS: KANSAS CITY,01/29/2019 02:24:00,,2354.00,1366.00,406.00,212.00,131.00,153.00,85.00,32.00,APPROVED
KS: KANSAS CITY,01/29/2019 03:24:00,,2355.00,1357.00,404.00,212.00,128.00,153.00,87.00,33.00,APPROVED
KS: KANSAS CITY,01/29/2019 04:25:00,,2356.00,1358.00,405.00,213.00,127.00,152.00,86.00,33.00,APPROVED
KS: KANSAS CITY,01/29/2019 05:25:00,,2359.00,1357.00,404.00,209.00,128.00,152.00,84.00,33.00,APPROVED
KS: KANSAS CITY,01/29/2019 06:25:00,,2375.00,1363.00,407.00,209.00,128.00,153.00,84.00,31.00,APPROVED
KS: KANSAS CITY,01/29/2019 07:25:00,,2407.00,1369.00,404.00,210.00,131.00,152.00,82.00,31.00,APPROVED
KS: KANSAS CITY,01/29/2019 08:25:00,,2424.00,1369.00,412.00,212.00,127.00,156.00,82.00,34.00,APPROVED
KS: KANSAS CITY,01/29/2019 09:26:00,,2453.00,1373.00,416.00,213.00,128.00,157.00,82.00,32.00,APPROVED
KS: KANSAS CITY,01/29/2019 10:26:00,,2447.00,1382.00,407.00,212.00,128.00,155.00,83.00,33.00,APPROVED
KS: KANSAS CITY,01/29/2019 11:26:00,,2433.00,1379.00,412.00,210.00,131.00,160.00,83.00,33.00,APPROVED
KS: KANSAS CITY,01/29/2019 12:26:00,,2385.00,1384.00,413.00,218.00,131.00,157.00,87.00,32.00,APPROVED
KS: KANSAS CITY,01/29/2019 13:26:00,,2388.00,1408.00,418.00,220.00,132.00,159.00,87.00,33.00,APPROVED
KS: KANSAS CITY,01/29/2019 14:27:00,,2374.00,1395.00,418.00,224.00,132.00,160.00,91.00,34.00,APPROVED
KS: KANSAS CITY,01/29/2019 15:27:00,,2371.00,1391.00,409.00,225.00,132.00,158.00,92.00,35.00,APPROVED
KS: KANSAS CITY,01/29/2019 16:27:00,,2374.00,1397.00,410.00,224.00,132.00,159.00,91.00,34.00,APPROVED
KS: KANSAS CITY,01/29/2019 17:27:00,,2348.00,1390.00,409.00,228.00,136.00,157.00,94.00,36.00,APPROVED
KS: KANSAS CITY,01/29/2019 18:27:00,,2311.00,1362.00,404.00,219.00,133.00,154.00,92.00,35.00,APPROVED
KS: KANSAS CITY,01/29/2019 19:28:00,,2278.00,1332.00,398.00,214.00,126.00,150.00,92.00,33.00,APPROVED
KS: KANSAS CITY,01/29/2019 20:28:00,,2282.00,1296.00,387.00,203.00,125.00,145.00,86.00,32.00,APPROVED
KS: KANSAS CITY,01/29/2019 21:28:00,,2273.00,1281.00,385.00,194.00,122.00,142.00,82.00,32.00,APPROVED
KS: KANSAS CITY,01/29/2019 22:28:00,,2278.00,1276.00,381.00,193.00,125.00,142.00,81.00,32.00,APPROVED
KS: KANSAS CITY,01/29/2019 23:28:00,,2292.00,1283.00,383.00,193.00,122.00,141.00,80.00,31.00,APPROVED
KS: KANSAS CITY,01/30/2019 00:29:00,,2291.00,1278.00,383.00,190.00,123.00,142.00,78.00,30.00,APPROVED
KS: KANSAS CITY,01/30/2019 01:29:00,,2304.00,1277.00,379.00,189.00,119.00,140.00,75.00,29.00,APPROVED
KS: KANSAS CITY,01/30/2019 02:29:00,,2373.00,1267.00,387.00,187.00,120.00,141.00,74.00,30.00,APPROVED
KS: KANSAS CITY,01/30/2019 03:29:00,,2868.00,1275.00,381.00,183.00,120.00,137.00,76.00,30.00,APPROVED
KS: KANSAS CITY,01/31/2019 16:37:00,,3183.00,1309.00,388.00,190.00,123.00,146.00,74.00,30.00,APPROVED
KS: KANSAS CITY,01/31/2019 17:37:00,,2340.00,1322.00,391.00,200.00,120.00,147.00,78.00,32.00,APPROVED
KS: KANSAS CITY,01/31/2019 18:37:00,,2355.00,1337.00,401.00,207.00,126.00,149.00,84.00,33.00,APPROVED
KS: KANSAS CITY,01/31/2019 19:37:00,,2347.00,1354.00,408.00,214.00,131.00,152.00,92.00,34.00,APPROVED
KS: KANSAS CITY,01/31/2019 20:37:00,,2279.00,1360.00,409.00,224.00,133.00,153.00,93.00,34.00,APPROVED
KS: KANSAS CITY,01/31/2019 21:38:00,,2287.00,1363.00,408.00,230.00,136.00,158.00,95.00,36.00,APPROVED
KS: KANSAS CITY,01/31/2019 22:38:00,,2309.00,1377.00,407.00,227.00,132.00,156.00,98.00,35.00,APPROVED
KS: KANSAS CITY,02/01/2019 09:40:00,,2482.00,1511.00,446.00,250.00,141.00,173.00,100.00,38.00,APPROVED
KS: KANSAS CITY,02/01/2019 10:40:00,,2457.00,1502.00,447.00,251.00,143.00,173.00,99.00,36.00,APPROVED
KS: KANSAS CITY,02/01/2019 11:40:00,,2474.00,1503.00,451.00,249.00,142.00,173.00,100.00,38.00,APPROVED
KS: KANSAS CITY,02/01/2019 12:41:00,,2494.00,1528.00,454.00,258.00,146.00,176.00,103.00,37.00,APPROVED
KS: KANSAS CITY,02/01/2019 13:41:00,,2500.00,1546.00,458.00,258.00,147.00,181.00,102.00,38.00,APPROVED
KS: KANSAS CITY,02/01/2019 14:41:00,,2520.00,1570.00,466.00,266.00,148.00,185.00,102.00,39.00,APPROVED
KS: KANSAS CITY,02/01/2019 15:41:00,,2509.00,1583.00,466.00,272.00,151.00,183.00,107.00,39.00,APPROVED
KS: KANSAS CITY,02/04/2019 19:26:00,,2481.00,1519.00,453.00,257.00,147.00,180.00,104.00,40.00,APPROVED
KS: KANSAS CITY,02/04/2019 20:35:00,,2394.00,1389.00,409.00,221.00,132.00,153.00,94.00,33.00,APPROVED
KS: KANSAS CITY,02/04/2019 21:35:00,,2416.00,1457.00,439.00,241.00,139.00,167.00,102.00,36.00,APPROVED
KS: KANSAS CITY,02/04/2019 22:35:00,,2416.00,1487.00,434.00,248.00,142.00,171.00,102.00,37.00,APPROVED
KS: KANSAS CITY,02/04/2019 23:35:00,,2425.00,1471.00,434.00,251.00,144.00,167.00,100.00,36.00,APPROVED
KS: KANSAS CITY,02/05/2019 00:35:00,,2430.00,1458.00,435.00,250.00,141.00,167.00,99.00,37.00,APPROVED
KS: KANSAS CITY,02/05/2019 01:36:00,,2433.00,1449.00,427.00,240.00,138.00,168.00,98.00,36.00,APPROVED
KS: KANSAS CITY,02/05/2019 02:36:00,,2418.00,1432.00,426.00,236.00,136.00,164.00,94.00,34.00,APPROVED
KS: KANSAS CITY,02/05/2019 03:36:00,,2408.00,1405.00,422.00,224.00,136.00,157.00,91.00,34.00,APPROVED
KS: KANSAS CITY,02/05/2019 04:36:00,,2411.00,1395.00,420.00,223.00,133.00,159.00,90.00,33.00,APPROVED
KS: KANSAS CITY,02/05/2019 05:36:00,,2410.00,1394.00,414.00,220.00,135.00,156.00,89.00,34.00,APPROVED
KS: KANSAS CITY,02/05/2019 06:37:00,,2414.00,1384.00,412.00,215.00,134.00,154.00,89.00,33.00,APPROVED
KS: KANSAS CITY,02/05/2019 07:37:00,,2407.00,1391.00,414.00,219.00,131.00,158.00,89.00,32.00,APPROVED
KS: KANSAS CITY,02/05/2019 08:37:00,,2415.00,1405.00,419.00,215.00,130.00,155.00,89.00,34.00,APPROVED
KS: KANSAS CITY,02/05/2019 09:37:00,,2411.00,1400.00,416.00,223.00,133.00,155.00,91.00,32.00,APPROVED
KS: KANSAS CITY,02/05/2019 10:37:00,,2418.00,1410.00,416.00,222.00,132.00,160.00,90.00,33.00,APPROVED
KS: KANSAS CITY,02/05/2019 11:38:00,,2422.00,1402.00,421.00,220.00,135.00,156.00,89.00,34.00,APPROVED
KS: KANSAS CITY,02/05/2019 12:38:00,,2425.00,1398.00,414.00,225.00,136.00,159.00,88.00,34.00,APPROVED
KS: KANSAS CITY,02/05/2019 13:38:00,,2433.00,1430.00,419.00,225.00,135.00,159.00,91.00,34.00,APPROVED
KS: KANSAS CITY,02/05/2019 14:38:00,,2447.00,1429.00,425.00,232.00,137.00,162.00,91.00,36.00,APPROVED
KS: KANSAS CITY,02/05/2019 15:38:00,,2444.00,1444.00,426.00,238.00,136.00,166.00,94.00,36.00,APPROVED
KS: KANSAS CITY,02/05/2019 16:39:00,,2490.00,1486.00,437.00,244.00,144.00,173.00,100.00,36.00,APPROVED
KS: KANSAS CITY,02/05/2019 17:39:00,,2536.00,1556.00,463.00,263.00,148.00,183.00,101.00,38.00,APPROVED
KS: KANSAS CITY,02/05/2019 18:39:00,,2523.00,1543.00,456.00,263.00,149.00,180.00,102.00,38.00,APPROVED
KS: KANSAS CITY,02/05/2019 19:39:00,,2563.00,1577.00,464.00,269.00,150.00,183.00,105.00,40.00,APPROVED
KS: KANSAS CITY,02/05/2019 20:39:00,,2553.00,1587.00,467.00,275.00,154.00,185.00,105.00,39.00,APPROVED
KS: KANSAS CITY,02/05/2019 21:40:00,,2641.00,1650.00,485.00,286.00,153.00,193.00,110.00,42.00,APPROVED
KS: KANSAS CITY,02/05/2019 22:40:00,,2585.00,1603.00,476.00,276.00,151.00,189.00,109.00,39.00,APPROVED
KS: KANSAS CITY,02/05/2019 23:40:00,,2523.00,1548.00,464.00,268.00,151.00,180.00,106.00,39.00,APPROVED
KS: KANSAS CITY,02/06/2019 00:40:00,,2510.00,1543.00,460.00,268.00,149.00,182.00,106.00,38.00,APPROVED
KS: KANSAS CITY,02/06/2019 01:40:00,,2523.00,1568.00,474.00,272.00,153.00,185.00,105.00,39.00,APPROVED
KS: KANSAS CITY,02/06/2019 02:41:00,,2524.00,1551.00,458.00,265.00,147.00,182.00,104.00,38.00,APPROVED
KS: KANSAS CITY,02/06/2019 03:41:00,,2485.00,1516.00,446.00,255.00,145.00,174.00,99.00,39.00,APPROVED
KS: KANSAS CITY,02/06/2019 04:41:00,,2460.00,1485.00,440.00,244.00,142.00,171.00,99.00,37.00,APPROVED
KS: KANSAS CITY,02/06/2019 05:41:00,,2469.00,1479.00,443.00,244.00,144.00,171.00,96.00,37.00,APPROVED
KS: KANSAS CITY,02/06/2019 06:41:00,,2469.00,1488.00,440.00,245.00,142.00,172.00,98.00,37.00,APPROVED
KS: KANSAS CITY,02/06/2019 07:42:00,,2469.00,1495.00,447.00,248.00,141.00,171.00,100.00,37.00,APPROVED
KS: KANSAS CITY,02/06/2019 08:42:00,,2466.00,1481.00,439.00,247.00,144.00,176.00,97.00,37.00,APPROVED
KS: KANSAS CITY,02/06/2019 09:42:00,,2460.00,1481.00,441.00,243.00,139.00,171.00,96.00,38.00,APPROVED
KS: KANSAS CITY,02/06/2019 10:42:00,,2471.00,1491.00,445.00,249.00,142.00,172.00,98.00,37.00,APPROVED
KS: KANSAS CITY,02/06/2019 11:42:00,,2469.00,1497.00,446.00,250.00,143.00,176.00,98.00,38.00,APPROVED
KS: KANSAS CITY,02/06/2019 12:43:00,,2467.00,1505.00,449.00,248.00,143.00,176.00,98.00,37.00,APPROVED
KS: KANSAS CITY,02/06/2019 13:43:00,,2456.00,1490.00,443.00,245.00,143.00,172.00,97.00,36.00,APPROVED
KS: KANSAS CITY,02/06/2019 14:43:00,,2521.00,1532.00,462.00,259.00,145.00,175.00,102.00,38.00,APPROVED
KS: KANSAS CITY,02/06/2019 15:43:00,,2600.00,1592.00,482.00,266.00,150.00,185.00,106.00,38.00,APPROVED
KS: KANSAS CITY,02/06/2019 16:43:00,,2628.00,1631.00,482.00,275.00,154.00,189.00,106.00,40.00,APPROVED
KS: KANSAS CITY,02/06/2019 17:44:00,,2684.00,1670.00,493.00,288.00,155.00,192.00,109.00,41.00,APPROVED
KS: KANSAS CITY,02/06/2019 18:44:00,,2615.00,1599.00,477.00,274.00,154.00,183.00,106.00,40.00,APPROVED
KS: KANSAS CITY,02/06/2019 19:44:00,,2528.00,1548.00,462.00,261.00,150.00,180.00,101.00,39.00,APPROVED
KS: KANSAS CITY,02/06/2019 20:44:00,,2497.00,1530.00,457.00,255.00,146.00,179.00,102.00,38.00,APPROVED
KS: KANSAS CITY,02/06/2019 21:44:00,,2495.00,1530.00,459.00,260.00,149.00,178.00,105.00,39.00,APPROVED
KS: KANSAS CITY,02/06/2019 22:45:00,,2481.00,1519.00,450.00,256.00,148.00,177.00,101.00,38.00,APPROVED
KS: KANSAS CITY,02/06/2019 23:45:00,,2467.00,1500.00,447.00,254.00,146.00,172.00,103.00,38.00,APPROVED
KS: KANSAS CITY,02/07/2019 00:45:00,,2459.00,1485.00,445.00,247.00,143.00,169.00,100.00,38.00,APPROVED
KS: KANSAS CITY,02/07/2019 01:45:00,,2459.00,1488.00,447.00,249.00,144.00,172.00,102.00,37.00,APPROVED
KS: KANSAS CITY,02/07/2019 02:45:00,,2497.00,1529.00,451.00,259.00,147.00,177.00,103.00,39.00,APPROVED
KS: KANSAS CITY,02/07/2019 03:46:00,,2605.00,1613.00,474.00,275.00,157.00,188.00,106.00,40.00,APPROVED
KS: KANSAS CITY,02/07/2019 04:46:00,,2483.00,1508.00,447.00,254.00,145.00,172.00,102.00,39.00,APPROVED
KS: KANSAS CITY,02/07/2019 05:46:00,,2650.00,1637.00,476.00,270.00,151.00,186.00,106.00,38.00,APPROVED
KS: KANSAS CITY,02/07/2019 06:46:00,,2650.00,1629.00,486.00,275.00,153.00,191.00,105.00,40.00,APPROVED
KS: KANSAS CITY,02/07/2019 07:46:00,,2502.00,1512.00,445.00,247.00,142.00,174.00,98.00,37.00,APPROVED
KS: KANSAS CITY,02/07/2019 08:47:00,,2780.00,1727.00,498.00,281.00,155.00,192.00,107.00,41.00,APPROVED
KS: KANSAS CITY,02/07/2019 09:47:00,,3350.00,2131.00,609.00,345.00,183.00,239.00,126.00,46.00,APPROVED
KS: KANSAS CITY,02/07/2019 10:47:00,,3234.00,2038.00,603.00,336.00,175.00,229.00,119.00,44.00,APPROVED
KS: KANSAS CITY,02/07/2019 11:47:00,,2731.00,1650.00,499.00,263.00,148.00,185.00,99.00,38.00,APPROVED
KS: KANSAS CITY,02/07/2019 12:47:00,,2592.00,1404.00,427.00,222.00,131.00,162.00,85.00,35.00,APPROVED
KS: KANSAS CITY,02/07/2019 13:48:00,,3285.00,1335.00,400.00,204.00,122.00,154.00,77.00,33.00,APPROVED
KS: KANSAS CITY,02/07/2019 17:48:00,,2751.00,1253.00,374.00,187.00,115.00,139.00,73.00,31.00,APPROVED
KS: KANSAS CITY,02/07/2019 18:49:00,,2437.00,1272.00,376.00,190.00,118.00,138.00,74.00,31.00,APPROVED
KS: KANSAS CITY,02/07/2019 19:49:00,,2289.00,1259.00,375.00,194.00,118.00,142.00,74.00,31.00,APPROVED
KS: KANSAS CITY,02/07/2019 20:49:00,,2218.00,1231.00,369.00,191.00,116.00,135.00,76.00,31.00,APPROVED
KS: KANSAS CITY,02/07/2019 21:49:00,,2184.00,1205.00,358.00,180.00,113.00,130.00,72.00,30.00,APPROVED
KS: KANSAS CITY,02/07/2019 22:49:00,,2223.00,1195.00,355.00,175.00,113.00,131.00,70.00,28.00,APPROVED
KS: KANSAS CITY,02/07/2019 23:50:00,,2282.00,1198.00,353.00,176.00,113.00,132.00,69.00,28.00,APPROVED
KS: KANSAS CITY,02/08/2019 00:50:00,,2440.00,1183.00,355.00,172.00,110.00,129.00,68.00,30.00,APPROVED
KS: KANSAS CITY,02/08/2019 01:50:00,,2599.00,1171.00,350.00,173.00,111.00,129.00,67.00,29.00,APPROVED
KS: KANSAS CITY,02/08/2019 02:50:00,,2853.00,1168.00,348.00,172.00,110.00,130.00,68.00,29.00,APPROVED
KS: KANSAS CITY,02/08/2019 03:50:00,,3219.00,1160.00,346.00,169.00,109.00,128.00,66.00,28.00,APPROVED
KS: KANSAS CITY,02/08/2019 04:51:00,,3852.00,1155.00,348.00,167.00,110.00,124.00,66.00,28.00,APPROVED
KS: KANSAS CITY,02/08/2019 17:53:00,,2375.00,1192.00,357.00,175.00,111.00,128.00,67.00,28.00,APPROVED
KS: KANSAS CITY,02/08/2019 18:53:00,,2186.00,1184.00,355.00,177.00,112.00,127.00,72.00,29.00,APPROVED
KS: KANSAS CITY,02/08/2019 19:28:00,,2150.00,1176.00,358.00,179.00,111.00,129.00,74.00,30.00,APPROVED
KS: KANSAS CITY,02/08/2019 20:34:00,,2146.00,1148.00,343.00,170.00,109.00,127.00,73.00,30.00,APPROVED
KS: KANSAS CITY,02/08/2019 21:34:00,,2154.00,1172.00,348.00,177.00,113.00,129.00,73.00,29.00,APPROVED
KS: KANSAS CITY,02/08/2019 22:34:00,,2163.00,1182.00,357.00,176.00,113.00,129.00,77.00,31.00,APPROVED
KS: KANSAS CITY,02/08/2019 23:35:00,,2157.00,1189.00,353.00,180.00,115.00,128.00,75.00,29.00,APPROVED
KS: KANSAS CITY,02/09/2019 00:35:00,,2159.00,1186.00,351.00,175.00,112.00,130.00,74.00,27.00,APPROVED
KS: KANSAS CITY,02/09/2019 01:35:00,,2179.00,1176.00,352.00,174.00,113.00,130.00,74.00,28.00,APPROVED
KS: KANSAS CITY,02/09/2019 02:35:00,,2178.00,1197.00,353.00,176.00,110.00,129.00,73.00,28.00,APPROVED
KS: KANSAS CITY,02/09/2019 03:35:00,,2213.00,1203.00,353.00,178.00,112.00,132.00,72.00,28.00,APPROVED
KS: KANSAS CITY,02/09/2019 04:36:00,,2230.00,1208.00,355.00,180.00,111.00,129.00,73.00,29.00,APPROVED
KS: KANSAS CITY,02/09/2019 05:36:00,,2245.00,1211.00,360.00,181.00,112.00,131.00,73.00,30.00,APPROVED
KS: KANSAS CITY,02/09/2019 06:36:00,,2327.00,1216.00,364.00,183.00,114.00,132.00,73.00,29.00,APPROVED
KS: KANSAS CITY,02/09/2019 07:36:00,,2426.00,1225.00,360.00,183.00,114.00,136.00,72.00,30.00,APPROVED
KS: KANSAS CITY,02/09/2019 08:36:00,,2650.00,1224.00,360.00,185.00,114.00,136.00,73.00,30.00,APPROVED
KS: KANSAS CITY,02/09/2019 09:37:00,,2910.00,1230.00,361.00,184.00,114.00,134.00,71.00,29.00,APPROVED
KS: KANSAS CITY,02/09/2019 10:37:00,,3207.00,1221.00,363.00,181.00,112.00,136.00,71.00,29.00,APPROVED
KS: KANSAS CITY,02/09/2019 11:37:00,,3433.00,1212.00,363.00,181.00,114.00,134.00,68.00,28.00,APPROVED
KS: KANSAS CITY,02/09/2019 12:37:00,,3549.00,1207.00,361.00,178.00,112.00,133.00,69.00,28.00,APPROVED
KS: KANSAS CITY,02/09/2019 13:37:00,,3781.00,1207.00,359.00,176.00,113.00,134.00,70.00,29.00,APPROVED
KS: KANSAS CITY,02/09/2019 14:38:00,,3184.00,1204.00,358.00,180.00,115.00,133.00,69.00,29.00,APPROVED
KS: KANSAS CITY,02/09/2019 15:38:00,,2444.00,1207.00,358.00,176.00,113.00,133.00,70.00,31.00,APPROVED
KS: KANSAS CITY,02/09/2019 16:38:00,,2206.00,1199.00,355.00,179.00,112.00,131.00,71.00,30.00,APPROVED
KS: KANSAS CITY,02/09/2019 17:38:00,,2196.00,1203.00,358.00,182.00,111.00,129.00,73.00,29.00,APPROVED
KS: KANSAS CITY,02/09/2019 18:38:00,,2190.00,1214.00,357.00,187.00,114.00,131.00,77.00,29.00,APPROVED
KS: KANSAS CITY,02/09/2019 19:39:00,,2199.00,1225.00,367.00,185.00,117.00,133.00,77.00,30.00,APPROVED
KS: KANSAS CITY,02/09/2019 20:39:00,,2197.00,1231.00,366.00,192.00,119.00,136.00,81.00,30.00,APPROVED
KS: KANSAS CITY,02/09/2019 21:39:00,,2206.00,1249.00,371.00,193.00,118.00,136.00,84.00,31.00,APPROVED
KS: KANSAS CITY,02/09/2019 22:39:00,,2190.00,1242.00,371.00,195.00,116.00,135.00,83.00,31.00,APPROVED
KS: KANSAS CITY,02/09/2019 23:39:00,,2190.00,1239.00,370.00,197.00,121.00,135.00,80.00,31.00,APPROVED
KS: KANSAS CITY,02/10/2019 00:40:00,,2202.00,1233.00,367.00,195.00,119.00,136.00,80.00,30.00,APPROVED
KS: KANSAS CITY,02/10/2019 01:40:00,,2201.00,1233.00,366.00,192.00,118.00,135.00,80.00,31.00,APPROVED
KS: KANSAS CITY,02/10/2019 02:40:00,,2209.00,1231.00,371.00,193.00,118.00,135.00,80.00,30.00,APPROVED
KS: KANSAS CITY,02/10/2019 03:40:00,,2201.00,1244.00,369.00,193.00,118.00,139.00,82.00,30.00,APPROVED